Regional Weather Roundup
Issued by NWS

Home | Current Version | Previous Version | Text Only | Print | Product List | Glossary Off
Versions: 1 2 3 4 5 6 7 8 9 10 11 12 13 14 15 16 17 18 19 20 21 22 23 24 25 26 27 28 29 30 31 32 33 34 35 36 37 38 39 40 41 42 43 44 45 46 47 48 49 50

000
ASUS45 KTFX 192219
RWRMT
MONTANA HOURLY WEATHER ROUNDUP
NATIONAL WEATHER SERVICE GREAT FALLS MT
419 PM MDT FRI SEP 19 2014

NOTE: "FAIR" INDICATES FEW OR NO CLOUDS BELOW 12000 FEET WITH NO
SIGNIFICANT WEATHER AND/OR OBSTRUCTIONS TO VISIBILITY.

* THESE STATIONS ARE NOT UNDER NWS QUALITY CONTROL. THEY DO NOT
   REPORT WEATHER SUCH AS PRECIPITATION OR FOG.

MTZ001>007-043-192300-
WEST OF THE DIVIDE
CITY           SKY/WX    TMP DP  RH WIND       PRES   REMARKS
KALISPELL      CLOUDY    70  45  41 W12       30.01R
MISSOULA       CLOUDY    72  45  38 SW15      30.06S
BUTTE          CLOUDY    66  39  37 NW14G23   30.10S
MULLAN PASS    CLOUDY    54  45  72 VRB3      30.19R
* ESSEX        N/A       65  46  50 NE3G8      N/A
* LINCOLN      N/A       67  43  42 SW9G21     N/A
* LOOKOUT PASS N/A       62  47  58 SE4G11     N/A
* POLSON       N/A       72  46  40 W4G10      N/A
* RONAN APT    PTCLDY    72  45  38 SW14G21    N/A
* SEELEY LAKE  N/A       66  45  47 NW4G15     N/A
* THOMP F APT  SUNNY     71  45  39 S9G18      N/A
$$

MTZ008-052>055-192300-
SOUTHWEST MONTANA
CITY           SKY/WX    TMP DP  RH WIND       PRES   REMARKS
BOZEMAN        PTSUNNY   75  43  32 NW21G26   30.00S
DILLON         SUNNY     75  39  27 W17G24    30.04S
W YELLOWSTONE  PTCLDY    64  45  50 S22G29    30.13S
* THREE FORKS  PTCLDY    77  54  45 W10G16     N/A
* BOULDER HILL N/A       67  37  33 S11G17     N/A
* MONIDA PASS  N/A       65  45  49 SE11       N/A
* RAYNOLDS PAS N/A       68  59  73 SW10G21    N/A
* WHITEHALL    N/A       76  42  30 W14G26     N/A
* WISE RIVER   N/A       70  40  34 NW16G26    N/A
$$

MTZ009>010-012-014-046-048-049-054-192300-
EAST SLOPES AND CENTRAL MONTANA
CITY           SKY/WX    TMP DP  RH WIND       PRES   REMARKS
CUT BANK       SUNNY     72  43  35 W23G41    29.91S
GREAT FALLS    PTCLDY    75  41  30 W23G30    29.92R
HELENA         PTCLDY    72  39  30 W14G31    29.98R
MALMSTROM AFB  PTCLDY    73  41  32 W20G30    29.93S
* CONRAD       SUNNY     73  46  38 SW23G30    N/A
* EAST GLACIER N/A       60  42  52 W12G17     N/A
* MONARCH      N/A       64  41  43 W19        N/A
* PENDROY      N/A       68  45  44 W29G35     N/A
* ROGERS PASS  N/A       65  40  40 SE4G16     N/A
* SAINT MARY   N/A       65  46  50 SW8G19     N/A
* SWEET GRASS  N/A       70  39  32 NW19G26    N/A
* WHITE SULPH  N/A       71  40  33 NW13G22    N/A
$$

MTZ011-013-016-021-035-040-045-047-050-051-192300-
NORTH CENTRAL MONTANA
CITY           SKY/WX    TMP DP  RH WIND       PRES   REMARKS
HAVRE          PTSUNNY   75  43  32 NW15      29.81S
LEWISTOWN      PTSUNNY   72  43  35 NW20G30   29.94R
* CHINOOK      PTCLDY    75  45  34 W10G18    29.80R
* CHESTER      N/A       74  39  28 W15G25     N/A
* DENTON       N/A       74  45  36 W16G33     N/A
* GEYSER       N/A       71  47  43 W20G28     N/A
* JUDITH GAP   N/A       68  47  47 NE4        N/A
* LOMA         N/A       76  43  31 W23        N/A
$$

MTZ017>020-022>027-061-062-192300-
NORTHEAST MONTANA
CITY           SKY/WX    TMP DP  RH WIND       PRES   REMARKS
GLASGOW        PTCLDY    79  48  34 NW13G24   29.77R
GLENDIVE       PTSUNNY   73  46  38 NW21G29   29.81R
JORDAN         PTSUNNY   75  46  36 W18G28    29.82S
SIDNEY         PTCLDY    75  52  45 NW12      29.76R
WOLF POINT     PTSUNNY   81  52  37 W14       29.75R
* BEAVER HILL  N/A       74  44  34 W26G34     N/A
* CIRCLE       N/A       75  51  43 W9G18      N/A
* LINDSAY DVD  N/A       73  46  38 W24G34     N/A
* NAVAJO       N/A       69  50  51 NW16G22    N/A
$$

MTZ028>042-056>058-192300-
SOUTHCENTRAL AND SOUTHEAST MONTANA
CITY           SKY/WX    TMP DP  RH WIND       PRES   REMARKS
BAKER          CLOUDY    73  46  38 NW20G26   29.83R
BILLINGS       PTCLDY    75  43  32 NW17G23   29.92R
LIVINGSTON     PTSUNNY   73  43  34 W21       29.98R
MILES CITY     PTCLDY    77  46  33 NW21G26   29.84R
* LAUREL APT   PTCLDY    75  43  32 NW8        N/A
* ROUNDUP APT  PTSUNNY   72  45  38 NW5        N/A
* ALZADA       N/A       78  48  35 W12        N/A
* HYSHAM       N/A       74  43  33 W8G22      N/A
* LAME DEER    N/A       70  46  42 NW9G19     N/A
* REED POINT   N/A       76  42  30 W22G28     N/A
* ROSCOE HILL  N/A       74  36  25 E9         N/A
$$

REGIONAL REPORTS...DAKOTAS
CITY           SKY/WX    TMP DP  RH WIND       PRES   REMARKS
WILLISTON      CLOUDY    75  48  39 NW21      29.73R
DICKINSON      PTSUNNY   75  48  39 W21G31    29.73R
BEACH          N/A       75  45  34 W23G32    29.80R
CROSBY         SUNNY     66  59  78 NW12      29.72R
TIOGA          SUNNY     70  50  49 NW15G22   29.75R
WATFORD CITY   SUNNY     73  46  38 NW13G18   29.72R
BISMARCK       PTSUNNY   82  48  31 W21G32    29.66R
GRAND FORKS    SUNNY     82  61  49 W10G21    29.49S HI  83
FARGO          SUNNY     79  64  60 SW14      29.55S
BUFFALO SD     SUNNY     79  45  30 W25G35    29.77R
RAPID CITY     PTSUNNY   81  48  32 N12       29.83S
$$

REGIONAL REPORTS...WYOMING/IDAHO/WASHINGTON
CITY           SKY/WX    TMP DP  RH WIND       PRES   REMARKS
GILLETTE       SUNNY     75  46  36 NW9       29.92S
SHERIDAN       PTCLDY    73  48  41 N15G21    29.93R
CODY           PTCLDY   N/A N/A N/A N/A        N/A
YELLOWSTONE LA SUNNY     61  39  44 N/A       30.23R
SALMON         SUNNY     77  43  30 NW3       29.98F
MULLAN PASS    CLOUDY    54  45  72 VRB3      30.19S
SAND POINT     PTSUNNY   70  50  49 S5        30.04S
SPOKANE        PTSUNNY   75  46  36 SW18G24   30.05S
$$

REGIONAL REPORTS...ALBERTA
CITY           SKY/WX    TMP DP  RH WIND       PRES   REMARKS
CALGARY        PTSUNNY   72  37  28 W15G24    29.80S
LETHBRIDGE     PTCLDY    73  41  32 W25G33    29.83R
MEDICINE HAT   SUNNY     75  46  36 W7        29.78S
EDMONTON       PTSUNNY   70  43  38 W16       29.72S
WATERTON GATE  N/A       66  41  40 SW18G29    N/A
CARDSTON       N/A       68  43  40 W18G25     N/A
MILK RIVER     N/A       73  41  32 W24G32     N/A
$$

REGIONAL REPORTS...SASKATCHEWAN
CITY           SKY/WX    TMP DP  RH WIND       PRES   REMARKS
SWIFT CURRENT  PTCLDY    72  46  40 NW14G23   29.75S
MOOSE JAW      PTSUNNY   68  52  57 NW13      29.74R
REGINA         PTSUNNY   66  54  65 N13       29.72R
VAL MARIE      N/A       75  46  36 NW16G22    N/A
ASSINIBOIA     N/A       72  46  40 NW17       N/A
CORONACH       N/A       70  50  49 NW17       N/A

$$




USA.gov is the U.S. government's official web portal to all federal, state and local government web resources and services.